GFSWCAN_prec_precacc24_174.txt.gz
Total_Precipitation_Accumulation
0.22 0.19 0.19 0.20 0.19 0.17 0.19 0.19 0.18 0.18 0.29 0.35 0.27 0.28 0.30 0.25 0.21 0.28 0.13 0.08 0.15 0.20 0.02 0.01 0.02 0.01 0.03 0.10 0.19 0.20 0.30 0.28 0.32 0.36 0.27 0.44 0.42 0.26 0.16 0.03 0.06 0.16 0.41 0.54 0.56 0.75 0.33 0.08 0.14 0.21 0.18 0.14 0.10 0.04
0.24 0.22 0.15 0.14 0.16 0.18 0.18 0.19 0.22 0.19 0.21 0.36 0.36 0.31 0.33 0.32 0.33 0.40 0.35 0.07 0.12 0.27 0.12 0.02 0.01 0.00 0.02 0.04 0.17 0.19 0.34 0.35 0.43 0.54 0.51 0.45 0.48 0.43 0.37 0.30 0.17 0.19 0.28 0.38 0.47 0.32 0.11 0.04 0.12 0.24 0.16 0.17 0.17 0.08
0.22 0.18 0.21 0.17 0.15 0.16 0.21 0.19 0.22 0.23 0.21 0.26 0.43 0.35 0.36 0.33 0.34 0.59 0.53 0.16 0.29 0.54 0.21 0.01 0.00 0.01 0.09 0.07 0.15 0.31 0.07 0.10 0.17 0.28 0.56 0.48 0.30 0.21 0.18 0.18 0.24 0.27 0.19 0.28 0.17 0.04 0.01 0.02 0.03 0.08 0.07 0.08 0.23 0.12
0.37 0.32 0.29 0.28 0.20 0.18 0.23 0.24 0.23 0.27 0.25 0.22 0.36 0.46 0.38 0.37 0.38 0.63 0.63 0.31 0.18 0.31 0.20 0.02 0.01 0.03 0.21 0.23 0.14 0.20 0.28 0.15 0.17 0.34 0.54 0.30 0.15 0.09 0.09 0.08 0.08 0.07 0.14 0.21 0.13 0.03 0.02 0.01 0.01 0.03 0.06 0.08 0.05 0.02
0.43 0.49 0.38 0.30 0.21 0.22 0.28 0.28 0.32 0.30 0.31 0.22 0.30 0.47 0.47 0.45 0.58 0.93 0.68 0.33 0.16 0.17 0.30 0.15 0.04 0.04 0.14 0.36 0.21 0.19 0.33 0.38 0.37 0.37 0.48 0.25 0.09 0.13 0.06 0.05 0.02 0.00 0.01 0.08 0.13 0.08 0.16 0.22 0.24 0.20 0.20 0.07 0.01 0.01
0.16 0.25 0.33 0.34 0.34 0.32 0.32 0.34 0.47 0.43 0.39 0.29 0.32 0.46 0.55 0.65 1.09 1.46 1.72 0.83 0.36 0.29 0.48 0.29 0.10 0.05 0.06 0.18 0.24 0.38 0.45 0.60 0.59 0.52 0.27 0.13 0.06 0.26 0.24 0.06 0.01 0.02 0.02 0.02 0.03 0.01 0.02 0.09 0.10 0.06 0.09 0.04 0.06 0.06
0.12 0.16 0.25 0.35 0.36 0.33 0.36 0.42 0.56 0.58 0.48 0.44 0.42 0.51 0.79 0.84 1.01 1.10 0.60 0.22 0.19 0.21 0.60 0.73 0.38 0.23 0.05 0.03 0.06 0.22 0.42 0.67 0.84 0.71 0.45 0.13 0.06 0.30 0.32 0.07 0.01 0.02 0.02 0.01 0.04 0.14 0.12 0.02 0.01 0.08 0.13 0.07 0.09 0.10
0.19 0.21 0.18 0.16 0.17 0.20 0.25 0.33 0.44 0.51 0.55 0.60 0.54 0.90 1.22 1.18 1.09 0.55 0.11 0.08 0.09 0.29 0.60 0.70 0.52 0.73 0.27 0.15 0.18 0.14 0.30 0.49 0.64 0.53 0.31 0.20 0.15 0.29 0.23 0.01 0.00 0.00 0.00 0.00 0.00 0.01 0.05 0.02 0.00 0.01 0.00 0.01 0.02 0.05
0.04 0.03 0.03 0.03 0.05 0.08 0.11 0.17 0.34 0.43 0.49 0.61 1.00 1.55 2.24 1.52 0.77 0.50 0.14 0.16 0.18 0.28 0.46 0.27 0.26 0.70 0.52 0.47 0.35 0.35 0.33 0.43 0.22 0.23 0.17 0.28 0.38 0.26 0.03 0.00 0.01 0.01 0.02 0.02 0.01 0.02 0.04 0.02 0.00 0.00 0.00 0.00 0.00 0.01
0.06 0.02 0.04 0.04 0.04 0.06 0.12 0.28 0.33 0.30 0.36 0.52 1.11 1.26 1.72 1.04 0.31 0.47 0.96 0.83 0.63 0.38 0.40 0.25 0.11 0.21 0.33 0.43 0.48 0.53 0.31 0.20 0.21 0.07 0.14 0.24 0.09 0.03 0.02 0.00 0.01 0.02 0.02 0.11 0.17 0.10 0.05 0.04 0.01 0.01 0.02 0.03 0.04 0.04
0.16 0.16 0.15 0.21 0.26 0.32 0.42 0.33 0.22 0.30 0.37 0.53 0.67 0.94 1.10 0.66 0.50 0.66 0.86 0.54 0.32 0.12 0.07 0.17 0.15 0.18 0.16 0.20 0.32 0.32 0.33 0.16 0.20 0.15 0.16 0.18 0.12 0.20 0.06 0.01 0.00 0.03 0.09 0.16 0.14 0.29 0.13 0.04 0.00 0.00 0.01 0.04 0.06 0.08
0.18 0.36 0.45 0.41 0.38 0.36 0.31 0.21 0.16 0.18 0.21 0.26 0.37 0.52 0.54 0.50 0.33 0.30 0.39 0.19 0.06 0.02 0.00 0.07 0.10 0.06 0.09 0.11 0.22 0.17 0.21 0.16 0.26 0.29 0.18 0.14 0.46 0.17 0.00 0.00 0.00 0.00 0.01 0.01 0.01 0.00 0.00 0.02 0.03 0.01 0.01 0.03 0.06 0.08
0.02 0.09 0.17 0.26 0.28 0.19 0.12 0.10 0.10 0.14 0.15 0.15 0.17 0.11 0.25 0.27 0.20 0.11 0.08 0.09 0.00 0.00 0.00 0.02 0.14 0.11 0.08 0.05 0.18 0.20 0.21 0.19 0.12 0.13 0.12 0.23 0.23 0.08 0.01 0.00 0.01 0.01 0.00 0.00 0.00 0.00 0.00 0.01 0.02 0.01 0.01 0.01 0.02 0.03
0.00 0.00 0.01 0.05 0.07 0.07 0.06 0.03 0.02 0.02 0.04 0.11 0.06 0.07 0.14 0.08 0.03 0.01 0.01 0.02 0.02 0.01 0.01 0.05 0.19 0.11 0.12 0.15 0.09 0.09 0.07 0.04 0.05 0.07 0.20 0.10 0.01 0.00 0.00 0.00 0.00 0.00 0.00 0.00 0.00 0.00 0.00 0.00 0.00 0.00 0.01 0.01 0.01 0.02
0.00 0.00 0.00 0.00 0.00 0.00 0.01 0.00 0.00 0.01 0.01 0.07 0.07 0.11 0.08 0.06 0.07 0.08 0.07 0.06 0.05 0.04 0.04 0.12 0.11 0.16 0.18 0.22 0.04 0.02 0.01 0.01 0.03 0.46 0.21 0.02 0.00 0.00 0.00 0.00 0.00 0.00 0.00 0.00 0.00 0.00 0.00 0.00 0.00 0.00 0.02 0.06 0.08 0.13
0.00 0.00 0.00 0.00 0.00 0.00 0.00 0.02 0.03 0.04 0.05 0.06 0.07 0.05 0.07 0.12 0.10 0.02 0.01 0.03 0.05 0.06 0.06 0.17 0.15 0.21 0.15 0.09 0.03 0.01 0.01 0.06 0.20 0.09 0.01 0.00 0.00 0.00 0.00 0.00 0.00 0.00 0.00 0.00 0.01 0.02 0.03 0.04 0.05 0.06 0.04 0.02 0.01 0.02
0.00 0.00 0.00 0.00 0.00 0.00 0.02 0.10 0.16 0.14 0.06 0.05 0.04 0.04 0.05 0.16 0.34 0.17 0.04 0.04 0.03 0.02 0.07 0.14 0.19 0.07 0.06 0.07 0.03 0.03 0.07 0.09 0.09 0.02 0.00 0.00 0.00 0.00 0.00 0.00 0.00 0.00 0.01 0.00 0.00 0.00 0.02 0.02 0.02 0.02 0.03 0.04 0.02 0.01
0.00 0.00 0.00 0.00 0.00 0.02 0.04 0.13 0.31 0.14 0.08 0.05 0.05 0.04 0.02 0.03 0.09 0.16 0.06 0.02 0.01 0.05 0.13 0.19 0.17 0.09 0.07 0.03 0.06 0.10 0.05 0.02 0.02 0.00 0.00 0.00 0.00 0.00 0.00 0.00 0.00 0.00 0.00 0.00 0.00 0.00 0.00 0.00 0.00 0.01 0.01 0.01 0.01 0.01
0.00 0.00 0.00 0.00 0.00 0.00 0.04 0.03 0.09 0.14 0.25 0.05 0.00 0.00 0.00 0.00 0.01 0.02 0.01 0.01 0.00 0.06 0.24 0.38 0.18 0.15 0.10 0.09 0.07 0.03 0.02 0.03 0.03 0.00 0.00 0.00 0.00 0.00 0.01 0.01 0.00 0.00 0.00 0.00 0.00 0.00 0.00 0.00 0.00 0.00 0.01 0.00 0.01 0.01
0.00 0.00 0.00 0.00 0.00 0.00 0.00 0.04 0.10 0.08 0.09 0.03 0.00 0.00 0.00 0.01 0.01 0.00 0.01 0.03 0.06 0.17 0.29 0.39 0.48 0.31 0.26 0.12 0.04 0.05 0.05 0.04 0.03 0.02 0.01 0.01 0.00 0.00 0.01 0.01 0.01 0.00 0.00 0.00 0.00 0.00 0.01 0.01 0.01 0.00 0.00 0.00 0.01 0.01
0.00 0.00 0.00 0.00 0.00 0.00 0.02 0.04 0.07 0.03 0.07 0.02 0.01 0.01 0.01 0.01 0.01 0.01 0.01 0.05 0.16 0.15 0.16 0.19 0.20 0.10 0.03 0.01 0.00 0.00 0.01 0.01 0.01 0.00 0.01 0.01 0.00 0.00 0.01 0.01 0.01 0.00 0.00 0.00 0.01 0.01 0.01 0.01 0.00 0.00 0.01 0.01 0.01 0.01
0.00 0.00 0.02 0.01 0.01 0.00 0.00 0.01 0.02 0.02 0.01 0.06 0.06 0.08 0.14 0.09 0.04 0.03 0.04 0.11 0.17 0.15 0.11 0.07 0.03 0.01 0.01 0.01 0.01 0.01 0.02 0.01 0.01 0.00 0.01 0.00 0.01 0.02 0.02 0.02 0.03 0.02 0.01 0.01 0.01 0.01 0.03 0.03 0.01 0.01 0.01 0.02 0.01 0.01
0.00 0.01 0.04 0.02 0.00 0.00 0.01 0.01 0.02 0.02 0.03 0.05 0.07 0.10 0.09 0.11 0.15 0.09 0.22 0.29 0.24 0.13 0.10 0.06 0.03 0.01 0.01 0.01 0.00 0.00 0.00 0.01 0.03 0.04 0.02 0.02 0.01 0.01 0.02 0.03 0.03 0.03 0.02 0.01 0.00 0.02 0.03 0.03 0.01 0.01 0.01 0.02 0.02 0.03
0.00 0.00 0.01 0.01 0.02 0.03 0.01 0.03 0.03 0.04 0.05 0.05 0.09 0.10 0.08 0.06 0.13 0.25 0.38 0.32 0.26 0.05 0.02 0.04 0.09 0.09 0.07 0.07 0.06 0.04 0.02 0.01 0.02 0.05 0.06 0.05 0.07 0.08 0.05 0.05 0.04 0.03 0.02 0.01 0.00 0.01 0.02 0.03 0.04 0.03 0.02 0.02 0.02 0.03
0.04 0.04 0.10 0.08 0.05 0.04 0.03 0.03 0.02 0.04 0.04 0.02 0.04 0.07 0.02 0.02 0.14 0.26 0.28 0.41 0.19 0.04 0.02 0.04 0.12 0.18 0.18 0.16 0.15 0.12 0.07 0.05 0.05 0.06 0.06 0.06 0.09 0.12 0.11 0.09 0.06 0.04 0.03 0.03 0.02 0.01 0.02 0.02 0.04 0.05 0.04 0.02 0.02 0.04
0.07 0.06 0.10 0.09 0.08 0.12 0.11 0.13 0.10 0.05 0.02 0.04 0.04 0.03 0.02 0.09 0.15 0.24 0.27 0.26 0.14 0.09 0.08 0.07 0.07 0.07 0.07 0.10 0.12 0.09 0.07 0.04 0.05 0.09 0.07 0.04 0.07 0.09 0.14 0.13 0.09 0.05 0.02 0.01 0.01 0.03 0.03 0.02 0.03 0.04 0.06 0.04 0.03 0.04
0.08 0.08 0.05 0.08 0.13 0.11 0.13 0.13 0.15 0.11 0.07 0.09 0.07 0.04 0.04 0.09 0.17 0.30 0.32 0.10 0.06 0.06 0.04 0.03 0.04 0.04 0.05 0.07 0.10 0.06 0.02 0.03 0.05 0.05 0.04 0.06 0.06 0.06 0.09 0.12 0.10 0.06 0.02 0.02 0.06 0.07 0.06 0.05 0.03 0.03 0.05 0.05 0.03 0.02
0.16 0.09 0.20 0.15 0.19 0.18 0.13 0.09 0.09 0.13 0.15 0.09 0.11 0.14 0.12 0.15 0.27 0.24 0.10 0.05 0.03 0.02 0.01 0.01 0.02 0.03 0.05 0.08 0.15 0.10 0.04 0.03 0.02 0.03 0.06 0.10 0.08 0.06 0.06 0.06 0.06 0.05 0.04 0.07 0.10 0.11 0.11 0.08 0.05 0.04 0.05 0.04 0.04 0.04
0.09 0.04 0.08 0.08 0.09 0.14 0.10 0.13 0.13 0.10 0.09 0.12 0.20 0.26 0.13 0.11 0.16 0.12 0.07 0.02 0.01 0.01 0.02 0.02 0.02 0.03 0.05 0.08 0.17 0.19 0.13 0.10 0.07 0.07 0.10 0.13 0.08 0.04 0.03 0.05 0.08 0.10 0.07 0.06 0.10 0.14 0.15 0.10 0.06 0.04 0.05 0.06 0.05 0.08
0.04 0.02 0.09 0.02 0.02 0.13 0.11 0.07 0.04 0.01 0.02 0.14 0.19 0.17 0.09 0.12 0.13 0.07 0.04 0.02 0.03 0.05 0.06 0.06 0.06 0.06 0.08 0.10 0.14 0.22 0.24 0.25 0.20 0.16 0.15 0.11 0.08 0.05 0.04 0.05 0.06 0.09 0.09 0.07 0.07 0.13 0.19 0.18 0.17 0.14 0.12 0.14 0.13 0.13
0.02 0.04 0.04 0.01 0.02 0.01 0.00 0.00 0.00 0.01 0.07 0.19 0.18 0.17 0.11 0.14 0.12 0.05 0.03 0.03 0.03 0.03 0.03 0.04 0.05 0.07 0.11 0.17 0.20 0.19 0.28 0.31 0.25 0.19 0.15 0.12 0.08 0.05 0.04 0.04 0.05 0.10 0.14 0.13 0.12 0.11 0.13 0.16 0.16 0.14 0.13 0.13 0.12 0.09
0.01 0.02 0.03 0.04 0.01 0.00 0.00 0.01 0.01 0.10 0.24 0.30 0.35 0.39 0.33 0.17 0.08 0.09 0.09 0.03 0.03 0.03 0.05 0.10 0.12 0.13 0.16 0.26 0.30 0.30 0.28 0.22 0.17 0.13 0.10 0.07 0.05 0.05 0.04 0.04 0.05 0.08 0.16 0.18 0.16 0.13 0.13 0.12 0.14 0.14 0.12 0.11 0.11 0.10
0.00 0.01 0.02 0.03 0.02 0.00 0.03 0.05 0.02 0.09 0.22 0.24 0.23 0.21 0.19 0.07 0.10 0.15 0.08 0.07 0.16 0.16 0.13 0.13 0.16 0.24 0.26 0.20 0.17 0.15 0.11 0.07 0.04 0.03 0.02 0.02 0.03 0.04 0.03 0.03 0.04 0.07 0.12 0.18 0.16 0.13 0.11 0.11 0.12 0.14 0.13 0.10 0.11 0.10

GFSWCAN_prec_precacc24_180.txt.gz
Total_Precipitation_Accumulation
0.20 0.18 0.19 0.18 0.17 0.16 0.16 0.16 0.15 0.16 0.25 0.31 0.23 0.25 0.21 0.13 0.16 0.20 0.12 0.09 0.16 0.18 0.02 0.01 0.04 0.01 0.01 0.02 0.05 0.09 0.10 0.12 0.21 0.26 0.12 0.09 0.14 0.09 0.06 0.02 0.05 0.11 0.30 0.45 0.53 0.71 0.39 0.17 0.18 0.28 0.30 0.20 0.13 0.08
0.17 0.14 0.11 0.10 0.12 0.16 0.17 0.16 0.18 0.15 0.17 0.31 0.32 0.26 0.29 0.22 0.20 0.20 0.22 0.06 0.12 0.23 0.11 0.01 0.01 0.00 0.01 0.01 0.02 0.06 0.12 0.16 0.27 0.43 0.48 0.41 0.33 0.22 0.13 0.10 0.06 0.12 0.26 0.37 0.47 0.36 0.20 0.15 0.14 0.26 0.19 0.18 0.17 0.15
0.16 0.11 0.11 0.10 0.10 0.12 0.17 0.16 0.18 0.19 0.15 0.21 0.36 0.30 0.30 0.32 0.29 0.26 0.33 0.14 0.21 0.42 0.15 0.01 0.00 0.01 0.00 0.01 0.00 0.01 0.01 0.03 0.07 0.19 0.50 0.44 0.28 0.19 0.14 0.10 0.13 0.13 0.08 0.17 0.14 0.04 0.01 0.02 0.03 0.09 0.07 0.08 0.23 0.18
0.28 0.25 0.24 0.16 0.18 0.17 0.17 0.18 0.18 0.21 0.19 0.19 0.31 0.37 0.32 0.40 0.40 0.41 0.54 0.28 0.15 0.24 0.16 0.02 0.00 0.00 0.01 0.00 0.00 0.00 0.00 0.01 0.06 0.20 0.38 0.27 0.15 0.09 0.09 0.08 0.08 0.06 0.07 0.05 0.07 0.03 0.02 0.01 0.01 0.03 0.06 0.08 0.05 0.02
0.38 0.45 0.32 0.19 0.21 0.27 0.26 0.24 0.26 0.23 0.23 0.22 0.28 0.41 0.35 0.45 0.71 0.82 0.63 0.32 0.14 0.14 0.24 0.09 0.01 0.00 0.00 0.00 0.00 0.00 0.00 0.02 0.07 0.19 0.32 0.22 0.09 0.13 0.06 0.05 0.02 0.00 0.01 0.08 0.12 0.08 0.16 0.22 0.24 0.20 0.20 0.07 0.01 0.01
0.14 0.22 0.27 0.29 0.30 0.32 0.31 0.30 0.35 0.35 0.30 0.31 0.33 0.46 0.47 0.74 1.56 1.52 1.72 0.87 0.35 0.27 0.36 0.13 0.03 0.00 0.00 0.00 0.00 0.00 0.01 0.10 0.17 0.22 0.19 0.13 0.06 0.26 0.24 0.06 0.01 0.02 0.02 0.02 0.03 0.01 0.02 0.09 0.10 0.06 0.09 0.05 0.08 0.08
0.11 0.11 0.17 0.25 0.30 0.29 0.32 0.36 0.46 0.55 0.52 0.55 0.51 0.54 0.88 1.33 1.38 1.09 0.57 0.22 0.19 0.17 0.33 0.23 0.04 0.07 0.03 0.01 0.02 0.02 0.07 0.29 0.44 0.44 0.36 0.13 0.06 0.31 0.39 0.10 0.01 0.02 0.02 0.02 0.05 0.14 0.12 0.02 0.01 0.08 0.13 0.11 0.18 0.15
0.11 0.10 0.09 0.12 0.17 0.24 0.29 0.37 0.52 0.59 0.69 0.84 0.66 0.98 1.55 1.57 1.23 0.56 0.09 0.03 0.08 0.26 0.40 0.26 0.07 0.10 0.19 0.14 0.15 0.13 0.24 0.42 0.57 0.44 0.29 0.20 0.16 0.35 0.32 0.02 0.01 0.02 0.01 0.01 0.00 0.01 0.05 0.02 0.00 0.01 0.00 0.01 0.07 0.16
0.05 0.04 0.03 0.04 0.08 0.12 0.17 0.30 0.46 0.51 0.59 0.75 1.16 1.90 2.74 1.60 0.72 0.49 0.14 0.11 0.11 0.19 0.24 0.10 0.03 0.18 0.42 0.46 0.35 0.35 0.33 0.43 0.22 0.24 0.17 0.29 0.40 0.34 0.05 0.02 0.03 0.02 0.07 0.03 0.01 0.02 0.04 0.02 0.00 0.00 0.01 0.00 0.01 0.02
0.09 0.05 0.05 0.05 0.08 0.16 0.27 0.37 0.42 0.43 0.48 0.55 1.22 1.34 1.74 0.96 0.24 0.32 0.70 0.59 0.39 0.20 0.10 0.06 0.04 0.13 0.28 0.41 0.47 0.53 0.31 0.20 0.21 0.07 0.14 0.25 0.09 0.06 0.12 0.03 0.02 0.04 0.03 0.11 0.17 0.10 0.05 0.04 0.01 0.01 0.04 0.04 0.03 0.00
0.22 0.20 0.20 0.33 0.41 0.38 0.40 0.30 0.19 0.15 0.14 0.42 0.55 0.65 0.89 0.50 0.28 0.41 0.62 0.33 0.15 0.07 0.02 0.00 0.01 0.14 0.16 0.20 0.32 0.32 0.33 0.16 0.21 0.15 0.17 0.19 0.25 0.44 0.12 0.02 0.00 0.03 0.09 0.16 0.15 0.36 0.19 0.12 0.01 0.02 0.03 0.00 0.00 0.00
0.30 0.45 0.49 0.43 0.37 0.32 0.27 0.15 0.07 0.07 0.12 0.11 0.13 0.41 0.50 0.50 0.30 0.23 0.25 0.14 0.03 0.01 0.00 0.01 0.05 0.06 0.09 0.11 0.22 0.18 0.22 0.17 0.26 0.29 0.22 0.21 0.91 0.39 0.01 0.01 0.03 0.03 0.01 0.02 0.09 0.24 0.07 0.08 0.01 0.00 0.00 0.00 0.00 0.01
0.19 0.21 0.23 0.30 0.33 0.24 0.15 0.08 0.08 0.14 0.14 0.14 0.17 0.16 0.32 0.32 0.20 0.08 0.08 0.09 0.00 0.00 0.00 0.02 0.14 0.11 0.08 0.05 0.18 0.20 0.22 0.19 0.13 0.15 0.18 0.31 0.42 0.27 0.05 0.07 0.07 0.09 0.10 0.15 0.13 0.02 0.01 0.00 0.00 0.00 0.00 0.00 0.00 0.01
0.09 0.08 0.10 0.13 0.12 0.09 0.07 0.06 0.07 0.07 0.08 0.13 0.07 0.09 0.16 0.10 0.03 0.01 0.01 0.02 0.02 0.01 0.01 0.05 0.19 0.11 0.12 0.15 0.09 0.09 0.08 0.07 0.08 0.09 0.32 0.21 0.12 0.07 0.01 0.05 0.07 0.03 0.01 0.00 0.00 0.00 0.00 0.00 0.00 0.00 0.00 0.01 0.01 0.02
0.01 0.02 0.01 0.02 0.03 0.03 0.04 0.02 0.03 0.04 0.04 0.08 0.07 0.11 0.08 0.06 0.07 0.08 0.07 0.06 0.05 0.04 0.04 0.12 0.11 0.15 0.17 0.22 0.04 0.03 0.02 0.03 0.05 0.54 0.26 0.02 0.00 0.00 0.00 0.00 0.00 0.00 0.00 0.00 0.00 0.00 0.00 0.00 0.00 0.00 0.01 0.04 0.07 0.13
0.00 0.00 0.00 0.02 0.02 0.04 0.02 0.02 0.03 0.04 0.05 0.06 0.07 0.05 0.07 0.12 0.10 0.02 0.01 0.03 0.05 0.05 0.05 0.17 0.14 0.20 0.14 0.09 0.03 0.02 0.02 0.07 0.29 0.12 0.01 0.00 0.00 0.00 0.00 0.00 0.00 0.00 0.00 0.00 0.01 0.00 0.00 0.00 0.01 0.02 0.01 0.01 0.01 0.02
0.00 0.00 0.00 0.00 0.01 0.01 0.02 0.10 0.16 0.14 0.06 0.05 0.04 0.01 0.03 0.16 0.34 0.17 0.04 0.04 0.03 0.04 0.07 0.14 0.19 0.07 0.06 0.08 0.04 0.03 0.08 0.10 0.10 0.02 0.00 0.00 0.00 0.00 0.00 0.00 0.00 0.00 0.01 0.01 0.01 0.00 0.01 0.01 0.01 0.01 0.02 0.03 0.02 0.01
0.00 0.00 0.00 0.00 0.00 0.02 0.04 0.13 0.31 0.14 0.08 0.04 0.02 0.01 0.00 0.01 0.06 0.15 0.09 0.03 0.01 0.05 0.13 0.19 0.17 0.09 0.08 0.06 0.08 0.11 0.05 0.02 0.02 0.00 0.00 0.00 0.00 0.00 0.00 0.00 0.00 0.00 0.00 0.01 0.00 0.00 0.00 0.00 0.00 0.00 0.00 0.01 0.01 0.01
0.00 0.00 0.00 0.00 0.00 0.00 0.04 0.04 0.09 0.22 0.51 0.10 0.00 0.00 0.00 0.00 0.01 0.02 0.10 0.05 0.01 0.06 0.23 0.37 0.18 0.14 0.10 0.10 0.08 0.05 0.05 0.05 0.03 0.00 0.00 0.00 0.00 0.00 0.00 0.00 0.00 0.00 0.00 0.00 0.00 0.00 0.00 0.00 0.00 0.00 0.01 0.01 0.00 0.00
0.00 0.00 0.00 0.00 0.00 0.00 0.00 0.04 0.10 0.15 0.17 0.04 0.00 0.00 0.01 0.04 0.02 0.01 0.16 0.26 0.12 0.15 0.16 0.35 0.50 0.35 0.31 0.16 0.06 0.05 0.06 0.04 0.02 0.01 0.01 0.01 0.00 0.00 0.00 0.01 0.01 0.00 0.00 0.00 0.00 0.00 0.00 0.00 0.00 0.00 0.00 0.00 0.01 0.01
0.00 0.00 0.00 0.00 0.00 0.00 0.02 0.04 0.07 0.03 0.22 0.07 0.01 0.01 0.01 0.03 0.05 0.06 0.04 0.17 0.33 0.29 0.27 0.27 0.33 0.31 0.21 0.22 0.13 0.04 0.01 0.01 0.01 0.01 0.01 0.01 0.00 0.00 0.00 0.01 0.01 0.01 0.00 0.00 0.01 0.01 0.01 0.01 0.00 0.00 0.01 0.02 0.02 0.01
0.00 0.00 0.02 0.01 0.01 0.00 0.00 0.01 0.02 0.02 0.06 0.12 0.06 0.08 0.14 0.09 0.05 0.07 0.10 0.19 0.24 0.22 0.20 0.16 0.13 0.10 0.10 0.07 0.05 0.02 0.02 0.01 0.01 0.00 0.01 0.01 0.01 0.01 0.01 0.03 0.06 0.03 0.01 0.01 0.01 0.02 0.03 0.03 0.01 0.01 0.01 0.03 0.02 0.01
0.00 0.01 0.04 0.02 0.00 0.00 0.01 0.01 0.02 0.02 0.03 0.06 0.07 0.10 0.09 0.12 0.24 0.15 0.26 0.33 0.29 0.20 0.18 0.15 0.11 0.06 0.04 0.02 0.00 0.00 0.00 0.01 0.03 0.04 0.03 0.02 0.01 0.01 0.01 0.02 0.04 0.04 0.03 0.02 0.01 0.02 0.03 0.03 0.01 0.01 0.01 0.02 0.02 0.02
0.00 0.00 0.02 0.02 0.02 0.02 0.01 0.03 0.03 0.04 0.04 0.05 0.10 0.11 0.08 0.06 0.23 0.32 0.40 0.34 0.28 0.09 0.06 0.08 0.07 0.05 0.04 0.05 0.06 0.04 0.02 0.01 0.02 0.05 0.07 0.06 0.07 0.08 0.06 0.04 0.04 0.03 0.02 0.01 0.00 0.01 0.02 0.03 0.02 0.02 0.02 0.02 0.02 0.02
0.05 0.05 0.11 0.08 0.04 0.04 0.03 0.03 0.03 0.04 0.05 0.02 0.05 0.09 0.05 0.05 0.19 0.28 0.28 0.41 0.20 0.05 0.03 0.03 0.04 0.07 0.11 0.12 0.12 0.11 0.07 0.05 0.06 0.07 0.08 0.06 0.08 0.10 0.10 0.11 0.08 0.05 0.03 0.03 0.02 0.02 0.03 0.03 0.03 0.04 0.03 0.02 0.02 0.03
0.07 0.06 0.10 0.10 0.09 0.13 0.14 0.16 0.13 0.08 0.05 0.08 0.08 0.06 0.07 0.22 0.25 0.28 0.25 0.25 0.12 0.06 0.05 0.04 0.02 0.01 0.03 0.06 0.07 0.07 0.06 0.04 0.05 0.09 0.08 0.04 0.08 0.10 0.14 0.16 0.17 0.13 0.08 0.03 0.02 0.04 0.04 0.03 0.03 0.03 0.05 0.04 0.03 0.03
0.08 0.08 0.05 0.09 0.15 0.14 0.19 0.18 0.20 0.16 0.11 0.13 0.13 0.09 0.10 0.14 0.22 0.32 0.32 0.11 0.07 0.06 0.05 0.04 0.03 0.02 0.03 0.03 0.06 0.05 0.02 0.03 0.05 0.06 0.05 0.08 0.08 0.08 0.12 0.15 0.14 0.14 0.11 0.09 0.11 0.12 0.11 0.09 0.06 0.05 0.05 0.05 0.03 0.03
0.16 0.09 0.20 0.15 0.19 0.21 0.16 0.12 0.12 0.18 0.20 0.11 0.12 0.16 0.17 0.18 0.29 0.26 0.11 0.07 0.05 0.03 0.02 0.02 0.02 0.02 0.04 0.05 0.10 0.09 0.04 0.03 0.03 0.05 0.12 0.14 0.10 0.08 0.08 0.09 0.08 0.07 0.06 0.11 0.14 0.17 0.18 0.15 0.12 0.10 0.09 0.07 0.06 0.06
0.07 0.03 0.08 0.08 0.09 0.15 0.11 0.14 0.14 0.11 0.12 0.13 0.22 0.29 0.16 0.13 0.20 0.15 0.09 0.04 0.03 0.03 0.04 0.04 0.04 0.04 0.04 0.05 0.08 0.12 0.12 0.10 0.08 0.09 0.16 0.18 0.10 0.05 0.04 0.06 0.09 0.10 0.07 0.06 0.12 0.17 0.19 0.16 0.13 0.11 0.11 0.10 0.08 0.11
0.02 0.01 0.06 0.01 0.02 0.13 0.12 0.06 0.04 0.01 0.02 0.16 0.22 0.20 0.13 0.17 0.20 0.12 0.08 0.06 0.07 0.08 0.08 0.09 0.09 0.07 0.07 0.08 0.09 0.13 0.16 0.22 0.20 0.18 0.18 0.15 0.12 0.08 0.06 0.06 0.06 0.08 0.07 0.05 0.06 0.12 0.20 0.21 0.22 0.21 0.20 0.20 0.18 0.18
0.01 0.01 0.02 0.00 0.01 0.01 0.00 0.00 0.00 0.02 0.11 0.25 0.23 0.20 0.14 0.17 0.16 0.08 0.05 0.06 0.06 0.05 0.04 0.05 0.05 0.08 0.10 0.14 0.16 0.15 0.22 0.26 0.24 0.21 0.18 0.15 0.10 0.07 0.05 0.04 0.05 0.10 0.12 0.12 0.11 0.10 0.13 0.19 0.18 0.16 0.15 0.15 0.13 0.11
0.00 0.01 0.03 0.03 0.01 0.00 0.00 0.00 0.01 0.12 0.26 0.34 0.42 0.45 0.38 0.20 0.10 0.11 0.10 0.04 0.04 0.04 0.07 0.11 0.13 0.13 0.17 0.27 0.28 0.27 0.29 0.24 0.19 0.15 0.11 0.08 0.05 0.04 0.04 0.03 0.04 0.08 0.16 0.18 0.16 0.13 0.12 0.12 0.14 0.16 0.15 0.13 0.14 0.14
0.00 0.01 0.02 0.02 0.01 0.00 0.00 0.01 0.02 0.13 0.24 0.26 0.28 0.26 0.22 0.09 0.13 0.17 0.11 0.08 0.17 0.18 0.15 0.15 0.17 0.23 0.26 0.20 0.17 0.16 0.12 0.08 0.05 0.03 0.02 0.02 0.03 0.03 0.02 0.03 0.04 0.07 0.12 0.17 0.16 0.13 0.11 0.09 0.09 0.11 0.11 0.10 0.12 0.13

GFSWCAN_prec_precacc24_183.txt.gz
Total_Precipitation_Accumulation
0.20 0.17 0.19 0.19 0.16 0.14 0.15 0.13 0.13 0.14 0.19 0.27 0.22 0.24 0.20 0.20 0.25 0.22 0.25 0.16 0.17 0.18 0.03 0.01 0.04 0.01 0.01 0.02 0.05 0.09 0.10 0.09 0.14 0.16 0.07 0.05 0.07 0.07 0.06 0.02 0.05 0.11 0.28 0.44 0.50 0.66 0.36 0.17 0.18 0.28 0.30 0.20 0.13 0.08
0.17 0.13 0.10 0.09 0.11 0.14 0.15 0.15 0.16 0.14 0.14 0.25 0.29 0.26 0.29 0.21 0.19 0.17 0.20 0.09 0.12 0.20 0.10 0.01 0.01 0.00 0.01 0.01 0.02 0.05 0.11 0.12 0.15 0.21 0.27 0.31 0.30 0.21 0.11 0.07 0.05 0.10 0.24 0.36 0.46 0.35 0.20 0.15 0.14 0.26 0.19 0.18 0.17 0.15
0.14 0.10 0.10 0.10 0.10 0.10 0.15 0.14 0.17 0.17 0.14 0.18 0.32 0.29 0.32 0.30 0.24 0.13 0.10 0.09 0.17 0.24 0.10 0.01 0.00 0.01 0.00 0.01 0.00 0.01 0.00 0.02 0.04 0.07 0.10 0.13 0.11 0.17 0.14 0.10 0.13 0.12 0.07 0.14 0.12 0.03 0.01 0.02 0.03 0.09 0.07 0.08 0.23 0.18
0.21 0.17 0.19 0.12 0.16 0.15 0.15 0.13 0.16 0.20 0.17 0.16 0.28 0.36 0.32 0.37 0.34 0.17 0.21 0.16 0.08 0.11 0.08 0.01 0.00 0.00 0.01 0.00 0.00 0.00 0.00 0.01 0.04 0.09 0.17 0.11 0.06 0.04 0.08 0.08 0.08 0.06 0.07 0.05 0.03 0.01 0.01 0.01 0.01 0.03 0.06 0.08 0.05 0.02
0.34 0.41 0.28 0.12 0.18 0.22 0.19 0.13 0.16 0.21 0.22 0.19 0.23 0.38 0.34 0.41 0.56 0.39 0.37 0.20 0.07 0.08 0.18 0.08 0.01 0.00 0.00 0.00 0.00 0.00 0.00 0.01 0.05 0.11 0.19 0.09 0.05 0.09 0.05 0.05 0.02 0.00 0.01 0.08 0.11 0.05 0.12 0.20 0.24 0.20 0.20 0.07 0.01 0.01
0.12 0.19 0.19 0.19 0.22 0.28 0.24 0.19 0.24 0.31 0.28 0.28 0.28 0.40 0.42 0.65 1.28 1.13 1.39 0.61 0.20 0.20 0.33 0.13 0.03 0.00 0.00 0.00 0.01 0.00 0.00 0.04 0.11 0.14 0.11 0.05 0.03 0.21 0.24 0.06 0.01 0.02 0.02 0.02 0.03 0.01 0.02 0.09 0.10 0.06 0.09 0.05 0.08 0.08
0.09 0.10 0.18 0.26 0.31 0.29 0.33 0.34 0.42 0.51 0.38 0.42 0.39 0.45 0.77 1.20 1.21 0.97 0.50 0.19 0.16 0.16 0.32 0.22 0.04 0.02 0.00 0.00 0.01 0.01 0.05 0.10 0.16 0.24 0.17 0.05 0.05 0.31 0.39 0.10 0.01 0.02 0.02 0.02 0.05 0.15 0.14 0.02 0.01 0.08 0.13 0.10 0.18 0.15
0.09 0.07 0.07 0.11 0.16 0.20 0.23 0.24 0.45 0.51 0.42 0.69 0.64 0.91 1.52 1.59 1.21 0.56 0.09 0.03 0.08 0.26 0.39 0.24 0.06 0.03 0.01 0.06 0.12 0.10 0.17 0.20 0.26 0.19 0.10 0.09 0.13 0.35 0.33 0.02 0.01 0.02 0.01 0.01 0.00 0.02 0.06 0.02 0.00 0.01 0.00 0.01 0.08 0.20
0.05 0.04 0.03 0.07 0.11 0.11 0.15 0.28 0.46 0.54 0.78 1.15 1.34 1.94 2.81 1.75 0.81 0.52 0.14 0.10 0.09 0.18 0.23 0.09 0.02 0.06 0.05 0.20 0.27 0.26 0.22 0.37 0.19 0.18 0.09 0.24 0.35 0.34 0.05 0.02 0.03 0.02 0.07 0.04 0.01 0.03 0.05 0.02 0.00 0.00 0.01 0.00 0.03 0.15
0.09 0.05 0.07 0.07 0.10 0.20 0.29 0.42 0.54 0.64 0.76 0.66 1.26 1.40 1.88 1.01 0.26 0.34 0.72 0.60 0.35 0.18 0.09 0.04 0.00 0.04 0.07 0.19 0.40 0.46 0.28 0.20 0.21 0.07 0.12 0.23 0.09 0.06 0.12 0.03 0.03 0.04 0.04 0.11 0.17 0.10 0.05 0.04 0.01 0.01 0.04 0.09 0.19 0.16
0.28 0.31 0.32 0.39 0.42 0.38 0.41 0.33 0.23 0.20 0.18 0.44 0.56 0.72 0.99 0.52 0.29 0.42 0.62 0.33 0.15 0.06 0.01 0.00 0.00 0.02 0.05 0.11 0.25 0.31 0.32 0.16 0.21 0.15 0.18 0.19 0.25 0.45 0.13 0.02 0.02 0.03 0.09 0.16 0.15 0.36 0.19 0.12 0.01 0.02 0.06 0.12 0.13 0.04
0.34 0.54 0.53 0.41 0.33 0.31 0.27 0.13 0.05 0.03 0.09 0.08 0.12 0.45 0.52 0.49 0.29 0.24 0.21 0.12 0.01 0.00 0.00 0.00 0.00 0.00 0.03 0.07 0.21 0.18 0.22 0.17 0.26 0.30 0.23 0.21 0.91 0.41 0.01 0.04 0.09 0.06 0.05 0.08 0.14 0.31 0.12 0.10 0.02 0.03 0.04 0.01 0.00 0.00
0.22 0.25 0.26 0.32 0.34 0.24 0.13 0.05 0.02 0.02 0.02 0.03 0.03 0.10 0.19 0.24 0.16 0.07 0.06 0.04 0.00 0.00 0.00 0.01 0.10 0.08 0.07 0.05 0.18 0.20 0.22 0.19 0.13 0.16 0.19 0.32 0.44 0.29 0.06 0.10 0.12 0.19 0.24 0.32 0.26 0.14 0.14 0.05 0.01 0.01 0.00 0.01 0.01 0.01
0.13 0.13 0.16 0.19 0.16 0.11 0.07 0.06 0.06 0.06 0.07 0.13 0.05 0.06 0.15 0.09 0.03 0.01 0.01 0.02 0.02 0.01 0.01 0.05 0.19 0.11 0.12 0.15 0.09 0.10 0.08 0.07 0.09 0.11 0.34 0.22 0.12 0.07 0.02 0.06 0.08 0.04 0.02 0.01 0.01 0.01 0.01 0.00 0.00 0.00 0.00 0.00 0.00 0.01
0.01 0.02 0.03 0.05 0.04 0.04 0.05 0.02 0.04 0.04 0.05 0.08 0.07 0.11 0.08 0.05 0.06 0.08 0.06 0.06 0.05 0.04 0.04 0.12 0.11 0.15 0.17 0.22 0.04 0.03 0.02 0.03 0.05 0.54 0.28 0.02 0.00 0.00 0.00 0.00 0.00 0.00 0.00 0.00 0.00 0.00 0.00 0.00 0.00 0.01 0.01 0.00 0.00 0.04
0.00 0.00 0.01 0.02 0.02 0.04 0.03 0.02 0.03 0.04 0.05 0.07 0.07 0.05 0.07 0.12 0.10 0.02 0.01 0.03 0.05 0.05 0.05 0.17 0.14 0.20 0.14 0.09 0.03 0.02 0.02 0.07 0.29 0.12 0.01 0.00 0.00 0.00 0.00 0.00 0.00 0.00 0.00 0.00 0.01 0.00 0.00 0.00 0.00 0.01 0.01 0.00 0.01 0.01
0.00 0.00 0.00 0.01 0.01 0.01 0.02 0.10 0.16 0.14 0.06 0.05 0.04 0.01 0.03 0.16 0.34 0.17 0.04 0.04 0.03 0.04 0.07 0.14 0.19 0.07 0.06 0.08 0.04 0.03 0.08 0.10 0.11 0.02 0.00 0.00 0.00 0.00 0.00 0.01 0.00 0.00 0.01 0.01 0.01 0.00 0.00 0.00 0.01 0.00 0.01 0.01 0.01 0.01
0.00 0.00 0.00 0.00 0.00 0.02 0.04 0.13 0.31 0.14 0.08 0.04 0.02 0.01 0.00 0.01 0.06 0.15 0.09 0.03 0.01 0.05 0.13 0.19 0.17 0.09 0.08 0.06 0.08 0.11 0.05 0.02 0.02 0.00 0.00 0.00 0.00 0.00 0.00 0.00 0.00 0.00 0.00 0.01 0.00 0.00 0.00 0.00 0.00 0.00 0.00 0.00 0.01 0.01
0.00 0.00 0.00 0.00 0.00 0.00 0.04 0.04 0.09 0.23 0.52 0.10 0.00 0.00 0.00 0.00 0.01 0.02 0.10 0.05 0.01 0.06 0.24 0.38 0.19 0.14 0.10 0.10 0.08 0.05 0.05 0.06 0.06 0.01 0.00 0.00 0.00 0.00 0.00 0.00 0.00 0.00 0.00 0.00 0.00 0.00 0.00 0.00 0.00 0.00 0.01 0.01 0.00 0.00
0.00 0.00 0.00 0.00 0.00 0.00 0.00 0.04 0.10 0.16 0.21 0.04 0.00 0.00 0.01 0.04 0.02 0.01 0.16 0.32 0.15 0.15 0.16 0.35 0.50 0.35 0.31 0.16 0.06 0.05 0.06 0.05 0.05 0.03 0.02 0.01 0.00 0.00 0.00 0.01 0.00 0.00 0.00 0.00 0.00 0.00 0.00 0.00 0.00 0.00 0.00 0.00 0.01 0.01
0.00 0.00 0.00 0.00 0.00 0.00 0.02 0.04 0.07 0.03 0.23 0.09 0.01 0.01 0.01 0.03 0.06 0.07 0.05 0.20 0.51 0.42 0.29 0.27 0.33 0.32 0.21 0.22 0.13 0.06 0.05 0.05 0.02 0.01 0.01 0.01 0.00 0.00 0.00 0.01 0.01 0.01 0.01 0.00 0.00 0.00 0.00 0.01 0.00 0.00 0.01 0.02 0.02 0.01
0.00 0.00 0.02 0.01 0.01 0.00 0.00 0.00 0.01 0.01 0.06 0.14 0.06 0.08 0.14 0.09 0.05 0.09 0.11 0.18 0.24 0.25 0.21 0.17 0.14 0.11 0.10 0.07 0.07 0.07 0.06 0.04 0.01 0.00 0.01 0.01 0.01 0.01 0.01 0.03 0.06 0.04 0.02 0.02 0.02 0.02 0.03 0.03 0.01 0.01 0.01 0.03 0.02 0.02
0.00 0.01 0.04 0.02 0.00 0.00 0.01 0.01 0.02 0.02 0.03 0.06 0.06 0.09 0.09 0.12 0.25 0.16 0.27 0.33 0.29 0.20 0.17 0.16 0.14 0.07 0.05 0.03 0.01 0.01 0.01 0.02 0.03 0.04 0.03 0.02 0.01 0.02 0.01 0.01 0.03 0.04 0.04 0.03 0.02 0.02 0.03 0.03 0.01 0.01 0.01 0.02 0.02 0.03
0.00 0.00 0.03 0.02 0.02 0.02 0.01 0.03 0.03 0.04 0.04 0.05 0.11 0.11 0.08 0.06 0.22 0.30 0.37 0.31 0.25 0.11 0.09 0.10 0.07 0.03 0.02 0.02 0.03 0.03 0.02 0.01 0.02 0.05 0.07 0.06 0.07 0.08 0.06 0.04 0.03 0.03 0.03 0.02 0.01 0.01 0.02 0.03 0.02 0.01 0.01 0.02 0.02 0.02
0.05 0.05 0.11 0.08 0.04 0.04 0.03 0.03 0.03 0.05 0.05 0.02 0.06 0.09 0.06 0.08 0.19 0.26 0.26 0.38 0.18 0.06 0.05 0.04 0.04 0.03 0.04 0.04 0.04 0.06 0.05 0.05 0.06 0.07 0.09 0.07 0.09 0.09 0.09 0.10 0.08 0.06 0.06 0.05 0.03 0.02 0.03 0.03 0.02 0.02 0.02 0.02 0.02 0.02
0.07 0.06 0.09 0.09 0.08 0.13 0.14 0.16 0.14 0.09 0.06 0.09 0.09 0.07 0.09 0.26 0.26 0.28 0.23 0.23 0.12 0.07 0.06 0.05 0.03 0.01 0.01 0.02 0.04 0.04 0.04 0.03 0.05 0.08 0.07 0.04 0.08 0.10 0.14 0.16 0.17 0.14 0.11 0.07 0.05 0.06 0.05 0.04 0.04 0.03 0.04 0.03 0.03 0.03
0.07 0.07 0.04 0.08 0.14 0.14 0.20 0.19 0.22 0.17 0.13 0.15 0.14 0.11 0.13 0.17 0.23 0.31 0.28 0.10 0.07 0.07 0.06 0.04 0.03 0.03 0.03 0.02 0.03 0.02 0.01 0.01 0.04 0.05 0.04 0.07 0.09 0.09 0.12 0.16 0.16 0.15 0.12 0.10 0.13 0.15 0.14 0.12 0.08 0.07 0.07 0.06 0.03 0.03
0.12 0.05 0.17 0.14 0.19 0.21 0.16 0.12 0.13 0.20 0.20 0.09 0.11 0.16 0.19 0.21 0.31 0.25 0.11 0.07 0.05 0.04 0.03 0.02 0.03 0.03 0.04 0.05 0.06 0.04 0.03 0.02 0.01 0.04 0.13 0.16 0.10 0.08 0.08 0.09 0.09 0.08 0.07 0.11 0.15 0.18 0.20 0.18 0.15 0.13 0.12 0.09 0.08 0.06
0.01 0.00 0.04 0.07 0.08 0.13 0.10 0.12 0.12 0.11 0.11 0.12 0.22 0.30 0.17 0.13 0.20 0.15 0.10 0.05 0.03 0.03 0.04 0.05 0.05 0.06 0.06 0.05 0.06 0.06 0.07 0.09 0.07 0.09 0.16 0.18 0.10 0.05 0.04 0.06 0.09 0.10 0.07 0.06 0.12 0.17 0.19 0.17 0.15 0.14 0.15 0.15 0.12 0.13
0.01 0.00 0.03 0.01 0.01 0.11 0.10 0.04 0.03 0.01 0.02 0.15 0.21 0.20 0.13 0.18 0.21 0.13 0.09 0.07 0.08 0.10 0.11 0.11 0.11 0.09 0.09 0.08 0.08 0.10 0.10 0.16 0.18 0.18 0.18 0.15 0.12 0.08 0.04 0.04 0.06 0.08 0.06 0.04 0.05 0.12 0.20 0.22 0.23 0.23 0.22 0.23 0.22 0.21
0.01 0.01 0.01 0.00 0.00 0.01 0.00 0.00 0.00 0.02 0.12 0.26 0.23 0.21 0.15 0.17 0.16 0.07 0.05 0.07 0.08 0.07 0.06 0.08 0.08 0.10 0.11 0.14 0.15 0.12 0.16 0.20 0.22 0.21 0.18 0.15 0.10 0.07 0.04 0.03 0.03 0.07 0.08 0.08 0.08 0.10 0.13 0.19 0.19 0.17 0.17 0.17 0.15 0.12
0.00 0.01 0.03 0.03 0.01 0.00 0.00 0.00 0.01 0.13 0.26 0.34 0.43 0.45 0.39 0.20 0.10 0.10 0.09 0.05 0.05 0.05 0.08 0.12 0.14 0.14 0.18 0.27 0.27 0.25 0.26 0.23 0.18 0.15 0.11 0.08 0.05 0.03 0.02 0.01 0.01 0.05 0.12 0.15 0.13 0.12 0.12 0.11 0.14 0.15 0.15 0.14 0.16 0.16
0.00 0.01 0.01 0.01 0.01 0.00 0.00 0.01 0.02 0.14 0.24 0.27 0.29 0.26 0.22 0.09 0.12 0.16 0.10 0.08 0.16 0.17 0.15 0.14 0.16 0.22 0.24 0.19 0.15 0.15 0.12 0.08 0.05 0.03 0.02 0.01 0.02 0.02 0.01 0.02 0.03 0.05 0.10 0.16 0.15 0.13 0.11 0.09 0.09 0.10 0.10 0.11 0.13 0.14

GFSWCAN_prec_precacc24_189.txt.gz
Total_Precipitation_Accumulation
0.16 0.13 0.14 0.16 0.11 0.09 0.09 0.09 0.08 0.10 0.14 0.21 0.19 0.23 0.21 0.27 0.24 0.20 0.22 0.15 0.14 0.20 0.16 0.10 0.05 0.01 0.01 0.01 0.03 0.06 0.08 0.07 0.09 0.11 0.04 0.02 0.02 0.02 0.02 0.00 0.00 0.01 0.17 0.35 0.44 0.60 0.35 0.17 0.18 0.28 0.30 0.20 0.13 0.08
0.11 0.09 0.07 0.08 0.11 0.11 0.09 0.10 0.11 0.10 0.12 0.19 0.24 0.24 0.27 0.20 0.18 0.14 0.16 0.08 0.10 0.17 0.13 0.02 0.02 0.01 0.01 0.01 0.01 0.04 0.09 0.10 0.09 0.13 0.15 0.17 0.13 0.09 0.05 0.04 0.03 0.05 0.15 0.30 0.40 0.33 0.20 0.15 0.14 0.26 0.19 0.18 0.17 0.15
0.09 0.08 0.10 0.11 0.11 0.10 0.12 0.09 0.13 0.14 0.12 0.15 0.25 0.25 0.29 0.26 0.22 0.09 0.04 0.06 0.11 0.12 0.10 0.04 0.01 0.01 0.00 0.01 0.00 0.00 0.00 0.01 0.03 0.04 0.04 0.03 0.01 0.01 0.02 0.03 0.04 0.04 0.02 0.09 0.07 0.03 0.01 0.02 0.03 0.09 0.07 0.08 0.23 0.18
0.14 0.10 0.15 0.12 0.16 0.14 0.14 0.11 0.12 0.17 0.15 0.15 0.22 0.30 0.29 0.32 0.28 0.10 0.03 0.07 0.05 0.04 0.05 0.03 0.00 0.00 0.01 0.00 0.00 0.00 0.00 0.00 0.01 0.02 0.05 0.04 0.02 0.00 0.00 0.00 0.00 0.00 0.00 0.00 0.01 0.01 0.01 0.01 0.00 0.03 0.06 0.08 0.05 0.02
0.27 0.22 0.12 0.08 0.17 0.21 0.19 0.11 0.12 0.20 0.20 0.19 0.22 0.31 0.29 0.36 0.47 0.23 0.07 0.09 0.06 0.03 0.10 0.08 0.01 0.00 0.00 0.00 0.00 0.00 0.00 0.00 0.02 0.04 0.05 0.02 0.02 0.03 0.00 0.00 0.00 0.00 0.00 0.03 0.07 0.05 0.11 0.19 0.23 0.19 0.20 0.07 0.01 0.01
0.10 0.12 0.08 0.10 0.16 0.25 0.22 0.15 0.15 0.24 0.25 0.26 0.27 0.33 0.37 0.55 1.01 0.57 0.62 0.20 0.07 0.09 0.07 0.05 0.03 0.00 0.00 0.00 0.01 0.00 0.00 0.02 0.06 0.09 0.08 0.03 0.01 0.07 0.08 0.01 0.00 0.00 0.00 0.01 0.02 0.01 0.02 0.09 0.10 0.05 0.06 0.03 0.07 0.08
0.09 0.10 0.15 0.19 0.24 0.25 0.23 0.23 0.24 0.32 0.34 0.39 0.37 0.36 0.57 0.94 0.79 0.45 0.17 0.04 0.01 0.05 0.07 0.05 0.03 0.01 0.01 0.01 0.07 0.01 0.01 0.05 0.10 0.14 0.10 0.04 0.02 0.12 0.24 0.08 0.00 0.00 0.01 0.01 0.05 0.15 0.14 0.02 0.01 0.08 0.13 0.10 0.17 0.12
0.09 0.08 0.11 0.18 0.25 0.28 0.27 0.21 0.27 0.34 0.35 0.61 0.48 0.57 1.04 1.05 0.63 0.23 0.01 0.00 0.01 0.04 0.06 0.09 0.06 0.05 0.02 0.05 0.14 0.05 0.07 0.11 0.16 0.11 0.03 0.04 0.08 0.19 0.23 0.01 0.01 0.02 0.01 0.01 0.00 0.02 0.07 0.03 0.01 0.01 0.01 0.02 0.08 0.20
0.04 0.04 0.04 0.08 0.13 0.14 0.16 0.25 0.31 0.39 0.72 0.98 0.93 1.48 2.37 1.48 0.54 0.31 0.06 0.03 0.02 0.06 0.10 0.05 0.04 0.11 0.05 0.06 0.10 0.09 0.11 0.20 0.11 0.09 0.03 0.12 0.19 0.22 0.04 0.02 0.03 0.02 0.07 0.04 0.01 0.03 0.05 0.03 0.02 0.01 0.01 0.01 0.03 0.15
0.10 0.06 0.07 0.07 0.11 0.21 0.31 0.37 0.43 0.67 0.77 0.55 1.06 1.26 1.68 0.91 0.20 0.29 0.56 0.40 0.25 0.13 0.06 0.06 0.05 0.08 0.08 0.05 0.06 0.07 0.12 0.11 0.11 0.03 0.04 0.13 0.04 0.05 0.10 0.03 0.03 0.04 0.04 0.12 0.17 0.11 0.06 0.05 0.03 0.02 0.05 0.10 0.20 0.21
0.30 0.33 0.37 0.46 0.53 0.54 0.58 0.48 0.41 0.34 0.22 0.45 0.52 0.72 0.94 0.45 0.26 0.39 0.62 0.32 0.14 0.05 0.01 0.02 0.05 0.07 0.07 0.12 0.08 0.07 0.14 0.11 0.14 0.10 0.15 0.13 0.19 0.43 0.12 0.02 0.03 0.03 0.10 0.17 0.16 0.37 0.20 0.12 0.02 0.03 0.07 0.13 0.20 0.15
0.31 0.45 0.53 0.50 0.49 0.51 0.48 0.31 0.17 0.05 0.09 0.08 0.11 0.43 0.49 0.46 0.28 0.23 0.20 0.12 0.01 0.02 0.00 0.01 0.03 0.05 0.07 0.06 0.10 0.07 0.10 0.13 0.19 0.29 0.24 0.20 0.91 0.41 0.02 0.04 0.09 0.07 0.08 0.11 0.16 0.32 0.13 0.12 0.05 0.12 0.11 0.03 0.01 0.01
0.29 0.28 0.27 0.32 0.34 0.29 0.21 0.10 0.02 0.01 0.02 0.02 0.02 0.10 0.16 0.21 0.15 0.06 0.06 0.03 0.03 0.02 0.00 0.01 0.02 0.05 0.07 0.06 0.10 0.15 0.20 0.18 0.14 0.16 0.19 0.34 0.46 0.29 0.06 0.11 0.14 0.20 0.27 0.37 0.32 0.24 0.26 0.13 0.06 0.03 0.01 0.02 0.01 0.01
0.17 0.19 0.21 0.21 0.16 0.10 0.07 0.06 0.05 0.05 0.07 0.07 0.01 0.03 0.04 0.04 0.02 0.02 0.03 0.05 0.03 0.01 0.01 0.02 0.05 0.06 0.11 0.16 0.08 0.10 0.08 0.08 0.10 0.12 0.39 0.28 0.12 0.07 0.02 0.07 0.09 0.05 0.03 0.02 0.02 0.02 0.01 0.01 0.01 0.01 0.01 0.01 0.00 0.01
0.02 0.03 0.04 0.06 0.05 0.04 0.04 0.02 0.03 0.03 0.04 0.05 0.04 0.04 0.02 0.02 0.04 0.04 0.03 0.05 0.05 0.05 0.03 0.04 0.04 0.11 0.16 0.22 0.04 0.04 0.02 0.04 0.08 0.62 0.37 0.04 0.00 0.00 0.00 0.01 0.00 0.00 0.00 0.00 0.00 0.00 0.00 0.00 0.00 0.01 0.01 0.01 0.00 0.00
0.00 0.00 0.01 0.03 0.02 0.04 0.03 0.01 0.00 0.01 0.01 0.03 0.05 0.04 0.05 0.08 0.07 0.01 0.01 0.03 0.05 0.05 0.05 0.11 0.13 0.20 0.14 0.10 0.03 0.02 0.03 0.09 0.36 0.20 0.02 0.00 0.00 0.00 0.00 0.00 0.00 0.00 0.00 0.00 0.01 0.01 0.00 0.01 0.01 0.01 0.01 0.00 0.01 0.00
0.00 0.00 0.00 0.01 0.02 0.02 0.02 0.07 0.12 0.08 0.04 0.04 0.03 0.01 0.03 0.14 0.32 0.16 0.04 0.04 0.03 0.03 0.05 0.16 0.21 0.09 0.08 0.10 0.05 0.03 0.09 0.16 0.13 0.03 0.00 0.00 0.00 0.00 0.00 0.01 0.00 0.00 0.01 0.01 0.01 0.00 0.00 0.00 0.01 0.00 0.01 0.01 0.00 0.01
0.00 0.00 0.00 0.00 0.00 0.02 0.04 0.11 0.26 0.09 0.06 0.04 0.02 0.01 0.00 0.01 0.06 0.15 0.09 0.03 0.01 0.04 0.12 0.21 0.22 0.12 0.09 0.07 0.09 0.13 0.07 0.02 0.02 0.00 0.00 0.00 0.00 0.00 0.00 0.00 0.00 0.00 0.00 0.01 0.00 0.00 0.00 0.00 0.00 0.00 0.00 0.00 0.00 0.01
0.00 0.00 0.00 0.00 0.00 0.01 0.04 0.04 0.08 0.21 0.51 0.10 0.00 0.00 0.00 0.00 0.00 0.02 0.10 0.05 0.01 0.06 0.27 0.40 0.20 0.14 0.10 0.11 0.11 0.06 0.05 0.06 0.06 0.01 0.00 0.00 0.00 0.00 0.00 0.00 0.00 0.00 0.00 0.00 0.00 0.00 0.00 0.00 0.00 0.00 0.01 0.01 0.00 0.00
0.00 0.00 0.00 0.00 0.00 0.00 0.00 0.05 0.11 0.16 0.22 0.06 0.01 0.01 0.01 0.05 0.03 0.01 0.16 0.32 0.15 0.15 0.19 0.36 0.50 0.35 0.29 0.17 0.06 0.04 0.05 0.05 0.06 0.08 0.04 0.01 0.00 0.00 0.00 0.00 0.00 0.00 0.00 0.00 0.00 0.00 0.00 0.00 0.00 0.00 0.00 0.00 0.01 0.02
0.00 0.00 0.00 0.00 0.00 0.00 0.02 0.04 0.08 0.04 0.24 0.09 0.01 0.01 0.02 0.03 0.07 0.08 0.05 0.20 0.52 0.45 0.31 0.26 0.33 0.32 0.21 0.22 0.13 0.06 0.05 0.06 0.06 0.04 0.02 0.02 0.01 0.01 0.00 0.01 0.01 0.01 0.01 0.01 0.01 0.00 0.01 0.01 0.01 0.00 0.00 0.01 0.02 0.01
0.01 0.00 0.02 0.00 0.01 0.00 0.00 0.00 0.01 0.02 0.06 0.14 0.04 0.02 0.06 0.06 0.04 0.10 0.13 0.19 0.21 0.19 0.16 0.15 0.13 0.10 0.10 0.07 0.06 0.06 0.05 0.05 0.05 0.04 0.05 0.02 0.02 0.01 0.01 0.03 0.07 0.04 0.02 0.02 0.02 0.03 0.04 0.03 0.01 0.01 0.01 0.03 0.02 0.01
0.00 0.01 0.04 0.02 0.00 0.00 0.00 0.00 0.01 0.01 0.03 0.06 0.06 0.06 0.07 0.11 0.24 0.14 0.22 0.19 0.15 0.12 0.11 0.12 0.13 0.07 0.05 0.03 0.01 0.00 0.01 0.01 0.02 0.02 0.03 0.03 0.02 0.02 0.01 0.01 0.03 0.04 0.03 0.03 0.03 0.02 0.03 0.03 0.01 0.01 0.01 0.02 0.02 0.03
0.00 0.00 0.02 0.01 0.01 0.02 0.01 0.01 0.02 0.03 0.04 0.05 0.11 0.11 0.09 0.07 0.21 0.22 0.20 0.16 0.16 0.09 0.09 0.13 0.10 0.05 0.02 0.01 0.01 0.01 0.00 0.00 0.01 0.02 0.05 0.06 0.08 0.08 0.06 0.04 0.03 0.03 0.03 0.02 0.02 0.01 0.02 0.02 0.01 0.01 0.01 0.02 0.02 0.02
0.05 0.05 0.11 0.07 0.03 0.02 0.03 0.02 0.02 0.06 0.06 0.04 0.09 0.13 0.12 0.16 0.25 0.23 0.17 0.30 0.15 0.06 0.06 0.07 0.09 0.08 0.08 0.06 0.02 0.01 0.01 0.02 0.03 0.05 0.07 0.06 0.08 0.09 0.08 0.10 0.08 0.07 0.06 0.06 0.05 0.03 0.03 0.03 0.02 0.02 0.02 0.02 0.01 0.02
0.05 0.03 0.06 0.06 0.05 0.09 0.12 0.14 0.13 0.08 0.06 0.10 0.11 0.07 0.10 0.30 0.32 0.32 0.20 0.20 0.12 0.08 0.08 0.08 0.07 0.06 0.06 0.05 0.06 0.06 0.04 0.02 0.03 0.06 0.05 0.03 0.05 0.08 0.12 0.16 0.17 0.15 0.11 0.08 0.07 0.09 0.09 0.06 0.05 0.03 0.03 0.03 0.02 0.03
0.03 0.03 0.02 0.06 0.12 0.13 0.19 0.19 0.22 0.17 0.14 0.16 0.14 0.10 0.14 0.22 0.27 0.24 0.16 0.08 0.08 0.08 0.07 0.06 0.05 0.05 0.06 0.04 0.04 0.04 0.03 0.02 0.03 0.03 0.03 0.05 0.06 0.07 0.10 0.13 0.14 0.15 0.12 0.10 0.14 0.16 0.16 0.17 0.12 0.08 0.08 0.08 0.04 0.03
0.04 0.02 0.10 0.08 0.14 0.19 0.15 0.11 0.12 0.17 0.15 0.07 0.10 0.16 0.19 0.20 0.20 0.16 0.10 0.07 0.06 0.04 0.03 0.04 0.05 0.05 0.06 0.07 0.08 0.05 0.02 0.02 0.02 0.04 0.13 0.15 0.07 0.06 0.07 0.07 0.07 0.08 0.06 0.10 0.15 0.18 0.20 0.19 0.18 0.17 0.17 0.14 0.11 0.09
0.00 0.00 0.03 0.03 0.03 0.09 0.06 0.06 0.07 0.08 0.09 0.10 0.17 0.22 0.13 0.10 0.16 0.12 0.08 0.05 0.04 0.05 0.07 0.07 0.08 0.09 0.09 0.08 0.08 0.06 0.04 0.06 0.08 0.10 0.16 0.17 0.08 0.04 0.02 0.03 0.06 0.08 0.05 0.05 0.11 0.15 0.17 0.16 0.16 0.15 0.17 0.18 0.17 0.18
0.01 0.00 0.02 0.00 0.00 0.05 0.04 0.01 0.01 0.01 0.02 0.14 0.18 0.12 0.09 0.13 0.15 0.10 0.07 0.06 0.06 0.08 0.09 0.11 0.12 0.12 0.13 0.12 0.12 0.12 0.09 0.11 0.17 0.20 0.21 0.17 0.14 0.08 0.03 0.03 0.04 0.04 0.03 0.02 0.03 0.08 0.15 0.19 0.22 0.22 0.23 0.25 0.26 0.27
0.01 0.01 0.01 0.00 0.00 0.01 0.00 0.00 0.00 0.02 0.11 0.25 0.23 0.16 0.09 0.12 0.10 0.04 0.04 0.06 0.06 0.06 0.07 0.08 0.08 0.10 0.13 0.17 0.18 0.15 0.14 0.13 0.18 0.20 0.19 0.17 0.11 0.07 0.04 0.02 0.02 0.03 0.03 0.03 0.03 0.05 0.09 0.14 0.16 0.16 0.15 0.16 0.16 0.15
0.00 0.01 0.02 0.03 0.01 0.00 0.00 0.00 0.01 0.12 0.26 0.32 0.36 0.37 0.30 0.14 0.06 0.07 0.06 0.03 0.05 0.05 0.07 0.10 0.12 0.13 0.17 0.26 0.25 0.22 0.20 0.16 0.13 0.12 0.10 0.08 0.05 0.03 0.01 0.00 0.00 0.02 0.05 0.06 0.05 0.05 0.06 0.07 0.11 0.13 0.14 0.15 0.17 0.18
0.00 0.00 0.01 0.01 0.00 0.00 0.00 0.01 0.02 0.14 0.23 0.18 0.19 0.19 0.14 0.05 0.07 0.11 0.08 0.05 0.11 0.11 0.10 0.11 0.14 0.17 0.19 0.18 0.15 0.15 0.13 0.08 0.05 0.04 0.02 0.01 0.01 0.00 0.00 0.01 0.01 0.02 0.04 0.09 0.09 0.07 0.05 0.05 0.06 0.08 0.09 0.12 0.15 0.17

GFSWCAN_prec_precacc24_192.txt.gz
Total_Precipitation_Accumulation
0.15 0.11 0.12 0.11 0.10 0.08 0.05 0.06 0.06 0.09 0.11 0.15 0.22 0.32 0.29 0.34 0.32 0.29 0.38 0.26 0.17 0.41 0.52 0.28 0.16 0.15 0.13 0.07 0.11 0.13 0.08 0.07 0.07 0.08 0.04 0.02 0.01 0.02 0.01 0.00 0.00 0.01 0.07 0.19 0.31 0.48 0.30 0.17 0.17 0.27 0.30 0.20 0.13 0.08
0.10 0.07 0.06 0.07 0.10 0.09 0.07 0.07 0.07 0.08 0.10 0.13 0.15 0.24 0.28 0.21 0.20 0.14 0.20 0.12 0.10 0.21 0.36 0.18 0.16 0.08 0.04 0.02 0.01 0.02 0.02 0.05 0.04 0.08 0.10 0.10 0.09 0.04 0.01 0.02 0.01 0.04 0.11 0.15 0.17 0.24 0.19 0.15 0.12 0.25 0.18 0.17 0.17 0.14
0.09 0.06 0.07 0.10 0.11 0.10 0.10 0.07 0.11 0.12 0.10 0.13 0.15 0.20 0.27 0.25 0.21 0.08 0.04 0.05 0.07 0.09 0.20 0.14 0.06 0.02 0.01 0.01 0.00 0.00 0.00 0.00 0.02 0.03 0.02 0.01 0.00 0.00 0.00 0.01 0.02 0.02 0.02 0.07 0.05 0.01 0.01 0.01 0.01 0.04 0.06 0.08 0.23 0.18
0.11 0.08 0.13 0.12 0.17 0.16 0.12 0.10 0.11 0.16 0.14 0.14 0.17 0.22 0.27 0.30 0.27 0.09 0.02 0.04 0.02 0.02 0.12 0.14 0.01 0.00 0.01 0.00 0.00 0.00 0.00 0.00 0.00 0.00 0.02 0.01 0.00 0.00 0.00 0.00 0.00 0.00 0.00 0.00 0.00 0.00 0.00 0.00 0.00 0.03 0.06 0.08 0.05 0.02
0.11 0.08 0.09 0.08 0.17 0.23 0.19 0.11 0.11 0.18 0.18 0.18 0.20 0.22 0.26 0.34 0.45 0.19 0.03 0.05 0.03 0.02 0.09 0.10 0.02 0.00 0.00 0.00 0.00 0.00 0.00 0.00 0.00 0.01 0.01 0.00 0.00 0.01 0.00 0.00 0.00 0.00 0.00 0.00 0.00 0.00 0.00 0.01 0.11 0.18 0.20 0.07 0.01 0.01
0.07 0.08 0.06 0.10 0.17 0.25 0.21 0.14 0.14 0.22 0.24 0.25 0.25 0.25 0.31 0.53 0.95 0.36 0.42 0.15 0.04 0.06 0.02 0.06 0.06 0.01 0.00 0.00 0.01 0.00 0.00 0.00 0.02 0.02 0.02 0.01 0.00 0.04 0.04 0.00 0.00 0.00 0.00 0.00 0.00 0.00 0.00 0.01 0.06 0.05 0.06 0.03 0.07 0.07
0.08 0.08 0.13 0.17 0.22 0.23 0.22 0.21 0.21 0.31 0.31 0.37 0.35 0.29 0.43 0.90 0.61 0.16 0.10 0.03 0.01 0.03 0.01 0.02 0.05 0.03 0.01 0.02 0.07 0.01 0.00 0.03 0.06 0.07 0.04 0.02 0.01 0.09 0.22 0.08 0.00 0.00 0.00 0.01 0.00 0.01 0.06 0.02 0.01 0.08 0.13 0.10 0.16 0.11
0.06 0.07 0.11 0.19 0.24 0.27 0.25 0.19 0.25 0.31 0.32 0.57 0.45 0.50 0.84 0.89 0.35 0.10 0.00 0.00 0.00 0.01 0.01 0.02 0.06 0.04 0.02 0.05 0.14 0.04 0.04 0.05 0.07 0.06 0.03 0.03 0.07 0.17 0.20 0.01 0.01 0.02 0.01 0.01 0.00 0.01 0.06 0.03 0.01 0.01 0.01 0.02 0.08 0.18
0.05 0.05 0.06 0.09 0.13 0.14 0.16 0.23 0.28 0.35 0.65 0.91 0.83 1.29 1.92 1.13 0.28 0.15 0.04 0.01 0.00 0.01 0.01 0.01 0.03 0.07 0.05 0.07 0.09 0.09 0.11 0.10 0.07 0.07 0.03 0.09 0.16 0.18 0.03 0.02 0.02 0.02 0.06 0.03 0.01 0.03 0.05 0.03 0.02 0.02 0.03 0.03 0.05 0.17
0.11 0.06 0.08 0.08 0.11 0.19 0.26 0.27 0.39 0.64 0.72 0.51 0.99 1.06 1.36 0.70 0.07 0.18 0.38 0.23 0.09 0.01 0.02 0.07 0.07 0.07 0.08 0.06 0.06 0.06 0.09 0.10 0.07 0.03 0.04 0.10 0.04 0.05 0.10 0.04 0.02 0.02 0.03 0.10 0.17 0.11 0.06 0.06 0.03 0.02 0.06 0.10 0.20 0.21
0.33 0.36 0.37 0.45 0.48 0.38 0.30 0.33 0.38 0.31 0.18 0.38 0.44 0.63 0.80 0.36 0.16 0.27 0.50 0.25 0.09 0.04 0.02 0.06 0.09 0.08 0.08 0.14 0.09 0.08 0.07 0.08 0.09 0.05 0.13 0.09 0.19 0.44 0.12 0.02 0.02 0.02 0.10 0.17 0.16 0.37 0.20 0.13 0.02 0.03 0.07 0.13 0.20 0.17
0.31 0.48 0.61 0.56 0.51 0.48 0.41 0.28 0.16 0.07 0.09 0.07 0.09 0.38 0.42 0.39 0.25 0.17 0.16 0.09 0.02 0.05 0.01 0.04 0.07 0.10 0.11 0.11 0.13 0.07 0.06 0.05 0.10 0.25 0.23 0.17 0.87 0.41 0.02 0.04 0.09 0.07 0.08 0.11 0.16 0.32 0.13 0.12 0.06 0.13 0.12 0.05 0.02 0.02
0.30 0.29 0.28 0.37 0.43 0.34 0.22 0.10 0.02 0.01 0.02 0.04 0.03 0.09 0.15 0.20 0.11 0.04 0.05 0.05 0.08 0.04 0.02 0.03 0.04 0.07 0.08 0.08 0.06 0.04 0.13 0.12 0.10 0.14 0.18 0.31 0.45 0.29 0.06 0.12 0.14 0.20 0.27 0.37 0.32 0.25 0.26 0.13 0.06 0.04 0.02 0.03 0.02 0.02
0.17 0.19 0.21 0.22 0.23 0.16 0.08 0.06 0.05 0.05 0.09 0.10 0.02 0.03 0.05 0.07 0.08 0.08 0.11 0.12 0.07 0.03 0.01 0.04 0.06 0.06 0.09 0.10 0.05 0.08 0.07 0.08 0.09 0.11 0.37 0.27 0.12 0.07 0.02 0.07 0.09 0.05 0.03 0.02 0.02 0.02 0.01 0.01 0.01 0.01 0.01 0.01 0.00 0.01
0.02 0.03 0.04 0.06 0.05 0.04 0.04 0.02 0.03 0.04 0.08 0.06 0.02 0.03 0.04 0.04 0.03 0.02 0.02 0.02 0.03 0.04 0.03 0.04 0.03 0.04 0.07 0.16 0.05 0.04 0.02 0.04 0.08 0.62 0.41 0.09 0.00 0.00 0.00 0.01 0.01 0.00 0.00 0.01 0.01 0.00 0.00 0.00 0.00 0.01 0.00 0.01 0.00 0.00
0.00 0.00 0.00 0.03 0.02 0.04 0.02 0.00 0.00 0.00 0.01 0.02 0.02 0.03 0.02 0.03 0.02 0.00 0.01 0.02 0.03 0.06 0.07 0.10 0.06 0.08 0.09 0.10 0.03 0.02 0.03 0.08 0.40 0.22 0.04 0.01 0.00 0.00 0.00 0.00 0.00 0.00 0.01 0.01 0.01 0.01 0.00 0.00 0.00 0.01 0.01 0.00 0.00 0.00
0.00 0.00 0.00 0.01 0.02 0.02 0.01 0.02 0.04 0.01 0.00 0.02 0.02 0.01 0.01 0.02 0.15 0.08 0.02 0.04 0.03 0.03 0.08 0.11 0.11 0.09 0.08 0.09 0.05 0.03 0.08 0.17 0.13 0.03 0.00 0.00 0.00 0.00 0.00 0.01 0.00 0.00 0.01 0.01 0.01 0.01 0.00 0.00 0.01 0.01 0.01 0.01 0.00 0.01
0.00 0.00 0.00 0.00 0.00 0.02 0.02 0.05 0.15 0.04 0.03 0.03 0.02 0.01 0.00 0.00 0.05 0.14 0.09 0.03 0.02 0.03 0.09 0.18 0.25 0.16 0.11 0.07 0.08 0.15 0.12 0.03 0.03 0.00 0.00 0.00 0.00 0.00 0.00 0.00 0.00 0.00 0.00 0.01 0.00 0.00 0.00 0.00 0.00 0.00 0.00 0.00 0.00 0.00
0.00 0.00 0.00 0.00 0.00 0.00 0.03 0.02 0.03 0.17 0.48 0.09 0.00 0.00 0.00 0.00 0.00 0.02 0.10 0.06 0.02 0.07 0.26 0.42 0.21 0.15 0.10 0.12 0.15 0.07 0.05 0.05 0.06 0.01 0.00 0.00 0.00 0.00 0.00 0.00 0.00 0.00 0.00 0.00 0.00 0.00 0.00 0.00 0.00 0.00 0.01 0.01 0.00 0.00
0.00 0.00 0.00 0.00 0.00 0.00 0.00 0.04 0.10 0.14 0.20 0.07 0.02 0.01 0.01 0.05 0.03 0.01 0.16 0.32 0.15 0.15 0.18 0.36 0.48 0.31 0.30 0.23 0.11 0.02 0.02 0.03 0.06 0.08 0.04 0.00 0.00 0.00 0.00 0.01 0.00 0.00 0.01 0.00 0.00 0.00 0.00 0.00 0.00 0.00 0.00 0.00 0.01 0.01
0.00 0.00 0.00 0.00 0.00 0.00 0.01 0.04 0.08 0.03 0.23 0.10 0.03 0.02 0.02 0.04 0.08 0.09 0.05 0.21 0.52 0.44 0.29 0.23 0.31 0.31 0.22 0.23 0.13 0.05 0.05 0.05 0.05 0.04 0.02 0.02 0.01 0.00 0.00 0.00 0.01 0.02 0.02 0.01 0.01 0.01 0.01 0.01 0.01 0.00 0.00 0.01 0.02 0.01
0.02 0.00 0.01 0.01 0.00 0.00 0.00 0.00 0.02 0.05 0.07 0.12 0.04 0.04 0.05 0.04 0.04 0.10 0.14 0.20 0.19 0.17 0.16 0.14 0.14 0.13 0.10 0.07 0.06 0.06 0.04 0.04 0.04 0.04 0.05 0.03 0.02 0.01 0.01 0.03 0.06 0.04 0.02 0.02 0.02 0.03 0.04 0.04 0.01 0.01 0.01 0.02 0.02 0.01
0.00 0.01 0.02 0.01 0.00 0.00 0.00 0.00 0.00 0.01 0.04 0.06 0.06 0.07 0.06 0.09 0.22 0.14 0.18 0.14 0.12 0.12 0.11 0.12 0.13 0.07 0.05 0.03 0.01 0.00 0.00 0.01 0.01 0.02 0.03 0.04 0.03 0.02 0.02 0.02 0.03 0.04 0.03 0.03 0.03 0.03 0.04 0.03 0.01 0.01 0.01 0.02 0.02 0.02
0.00 0.00 0.02 0.01 0.01 0.01 0.00 0.00 0.01 0.02 0.04 0.06 0.10 0.09 0.07 0.10 0.26 0.22 0.14 0.13 0.15 0.09 0.09 0.13 0.10 0.06 0.03 0.01 0.01 0.01 0.00 0.00 0.01 0.02 0.04 0.04 0.07 0.10 0.07 0.04 0.03 0.03 0.03 0.02 0.02 0.02 0.02 0.02 0.01 0.01 0.01 0.01 0.02 0.02
0.03 0.04 0.08 0.04 0.02 0.02 0.02 0.01 0.02 0.05 0.05 0.04 0.08 0.11 0.15 0.19 0.31 0.22 0.14 0.26 0.13 0.05 0.06 0.07 0.09 0.09 0.08 0.06 0.03 0.02 0.00 0.01 0.02 0.04 0.05 0.04 0.06 0.07 0.08 0.11 0.09 0.07 0.06 0.06 0.05 0.03 0.03 0.03 0.02 0.01 0.01 0.02 0.01 0.02
0.02 0.02 0.03 0.03 0.03 0.06 0.10 0.11 0.11 0.07 0.06 0.10 0.11 0.07 0.10 0.30 0.33 0.29 0.17 0.19 0.13 0.09 0.08 0.08 0.08 0.08 0.08 0.08 0.10 0.08 0.03 0.01 0.02 0.04 0.03 0.02 0.03 0.05 0.09 0.15 0.18 0.15 0.11 0.07 0.07 0.10 0.09 0.07 0.05 0.03 0.02 0.02 0.02 0.03
0.02 0.02 0.01 0.04 0.09 0.09 0.16 0.19 0.21 0.16 0.14 0.16 0.14 0.10 0.14 0.22 0.24 0.18 0.12 0.08 0.07 0.08 0.07 0.06 0.05 0.06 0.09 0.08 0.06 0.06 0.04 0.03 0.06 0.06 0.03 0.05 0.06 0.06 0.07 0.10 0.12 0.15 0.12 0.10 0.11 0.15 0.16 0.17 0.12 0.08 0.08 0.07 0.04 0.03
0.02 0.01 0.05 0.04 0.07 0.11 0.12 0.08 0.10 0.14 0.12 0.07 0.09 0.14 0.16 0.16 0.15 0.11 0.08 0.06 0.04 0.03 0.03 0.03 0.04 0.05 0.07 0.09 0.08 0.06 0.04 0.03 0.05 0.07 0.15 0.16 0.07 0.05 0.05 0.05 0.05 0.05 0.06 0.09 0.11 0.15 0.18 0.18 0.17 0.16 0.17 0.14 0.11 0.08
0.00 0.00 0.01 0.01 0.01 0.05 0.04 0.04 0.04 0.06 0.09 0.09 0.12 0.11 0.09 0.08 0.12 0.10 0.06 0.04 0.03 0.04 0.06 0.07 0.07 0.08 0.09 0.09 0.08 0.07 0.06 0.08 0.11 0.13 0.17 0.16 0.08 0.04 0.02 0.03 0.03 0.04 0.03 0.03 0.07 0.11 0.14 0.15 0.14 0.14 0.16 0.18 0.17 0.19
0.00 0.00 0.02 0.00 0.00 0.02 0.02 0.00 0.00 0.01 0.01 0.11 0.09 0.08 0.07 0.11 0.13 0.09 0.07 0.06 0.06 0.07 0.08 0.10 0.11 0.12 0.12 0.13 0.15 0.15 0.10 0.12 0.17 0.21 0.22 0.19 0.15 0.09 0.03 0.02 0.02 0.01 0.01 0.01 0.02 0.05 0.11 0.15 0.19 0.20 0.20 0.23 0.23 0.24
0.00 0.00 0.00 0.00 0.00 0.00 0.00 0.00 0.00 0.02 0.11 0.22 0.14 0.07 0.07 0.10 0.09 0.04 0.04 0.05 0.06 0.06 0.07 0.08 0.08 0.09 0.11 0.15 0.16 0.17 0.14 0.11 0.14 0.17 0.19 0.20 0.15 0.10 0.04 0.02 0.01 0.02 0.01 0.01 0.01 0.03 0.06 0.11 0.13 0.13 0.13 0.14 0.14 0.14
0.00 0.00 0.02 0.02 0.00 0.00 0.00 0.00 0.01 0.11 0.18 0.19 0.23 0.23 0.20 0.11 0.05 0.05 0.05 0.03 0.04 0.06 0.07 0.09 0.11 0.12 0.15 0.21 0.21 0.21 0.19 0.13 0.12 0.11 0.10 0.10 0.09 0.06 0.03 0.02 0.01 0.01 0.02 0.03 0.02 0.03 0.03 0.05 0.08 0.11 0.12 0.13 0.16 0.16
0.00 0.00 0.00 0.00 0.00 0.00 0.00 0.00 0.02 0.12 0.12 0.10 0.15 0.16 0.11 0.04 0.06 0.09 0.07 0.05 0.09 0.09 0.09 0.10 0.12 0.15 0.16 0.14 0.13 0.14 0.13 0.09 0.07 0.05 0.04 0.04 0.03 0.02 0.01 0.01 0.02 0.02 0.03 0.05 0.05 0.04 0.03 0.03 0.04 0.06 0.07 0.11 0.14 0.16